User: anonymous   Login
Location: La Tine
(46.4708°N, 7.0525°E)
Time: 14:16:35
(UTC+00:00)
Language:

Cosmos 1844 - Orbit

View from above orbital plane
View from above orbital plane
View from above satellite
View from above satellite

Ground track
Ground track

The orbit data is extracted from the following two-line orbital elements,

1 17973U 87041A   20339.69666266 -.00000363  00000-0 -16474-3 0  9990
2 17973  70.8967 124.2349 0030151  20.7320 339.5017 14.14111925731980
Epoch (UTC): 04 December 2020 16:43:11
Eccentricity: 0.0030151
inclination: 70.8967°
perigee height: 823 km
apogee height: 867 km
right ascension of ascending node: 124.2349°
argument of perigee: 20.7320°
revolutions per day: 14.14111925
mean anomaly at epoch: 339.5017°
orbit number at epoch: 73198

The dashed part of the orbit path shows where the satellite is in the earth's shadow,  

DLR